Regional Weather Roundup
Issued by NWS

Home | Current Version | Previous Version | Text Only | Print | Product List | Glossary Off
Versions: 1 2 3 4 5 6 7 8 9 10 11 12 13 14 15 16 17 18 19 20 21 22 23 24 25 26 27 28 29 30 31 32 33 34 35 36 37 38 39 40 41 42 43 44 45 46 47 48 49 50

968
ASUS43 KOAX 300102
RWRNE

WEATHER ROUNDUP FOR NEBRASKA
NATIONAL WEATHER SERVICE OMAHA NE
800 PM CDT SAT APR 29 2017

NOTES: SATELLITE DATA IS BEING USED TO AUGMENT CLOUD COVER ABOVE
       12000 FEET.
       "FAIR" INDICATES FEW OR NO CLOUDS BELOW 12,000 FEET WITH NO
       SIGNIFICANT WEATHER AND/OR OBSTRUCTIONS TO VISIBILITY.

  * THESE STATIONS DO NOT REPORT WEATHER SUCH AS RAIN...SNOW OR FOG.

NEZ001>004-019>022-054>056-300200-
NEBRASKA PANHANDLE

CITY           SKY/WX    TMP DP  RH WIND       PRES   REMARKS
SCOTTSBLUFF    CLOUDY    44  27  51 NW10      30.17F
ALLIANCE       CLOUDY    45  22  40 N12       30.13F
CHADRON        CLOUDY    48  23  37 NE8       30.16S
KIMBALL        CLOUDY    39  25  55 N15       30.15F WCI  31
SIDNEY         CLOUDY    42  26  53 N17       30.12F
$$

NEZ057>060-069>072-079>082-300200-
SOUTHWEST NEBRASKA

CITY           SKY/WX    TMP DP  RH WIND       PRES   REMARKS
NORTH PLATTE   CLOUDY    45  27  49 NE12      30.08R
IMPERIAL       CLOUDY    43  23  45 NE20G25   30.08S
LEXINGTON      CLOUDY    43  31  62 N20G28    30.05R
MCCOOK         LGT RAIN  40  34  79 N23G35    30.06R WCI  30
OGALLALA       CLOUDY    47  21  36 NE21G26   30.10R
$$

NEZ005>010-023>029-035>040-094-300200-
NORTH CENTRAL NEBRASKA

CITY           SKY/WX    TMP DP  RH WIND       PRES   REMARKS
VALENTINE      CLOUDY    51  18  27 NE13      30.13S
AINSWORTH      CLOUDY    48  23  38 NE18      30.12S
BROKEN BOW     CLOUDY    44  29  55 NE18G30   30.07S
O`NEILL        CLOUDY    47  18  31 NE9       30.12R
ORD            CLOUDY    45  29  53 NE18G31   30.06S
THEDFORD       CLOUDY    47  23  38 NE18G24   30.10S
$$

NEZ041-046>049-061>064-073>077-083>087-300200-
SOUTH CENTRAL NEBRASKA

CITY           SKY/WX    TMP DP  RH WIND       PRES   REMARKS
GRAND ISLAND   CLOUDY    42  36  79 N21G30    30.02R
AURORA         CLOUDY    42  37  82 NE21G31   30.00S
HASTINGS       CLOUDY    41  35  79 N22G29    29.99S
HEBRON         LGT RAIN  41  40  97 NE22G30   29.93R
HOLDREGE       LGT RAIN  39  34  84 N24G32    30.01S WCI  28
KEARNEY *      CLOUDY    39  34  81 N22G28    30.02S WCI  29
YORK           LGT RAIN  41  39  93 NE26G32   29.99F
$$

NEZ011>018-030>034-042>045-300200-
NORTHEAST NEBRASKA

CITY           SKY/WX    TMP DP  RH WIND       PRES   REMARKS
NORFOLK        CLOUDY    46  27  47 NE21G32   30.05S
ALBION         CLOUDY    47  28  48 NE12G18   30.05S
BLAIR          CLOUDY    43  37  77 NE20G33   30.00R HAZE
FREMONT        CLOUDY    41  39  91 NE13G21   30.05R
TEKAMAH        LGT RAIN  43  36  76 NE22G29   30.06R
WAYNE          CLOUDY    47  28  47 NE17      30.07S
$$

NEZ050>053-065>068-078-088>093-300200-
SOUTHEAST NEBRASKA

CITY           SKY/WX    TMP DP  RH WIND       PRES   REMARKS
LINCOLN        LGT RAIN  42  40  92 N23G30    29.99S FOG
OMAHA EPPLEY   LGT RAIN  44  36  73 NE25G36   30.00R
BEATRICE       CLOUDY    42  41  97 NE18G26   29.93R FOG
FALLS CITY     LGT RAIN  43  41  93 NE18G24   29.90S FOG
NEBRASKA CITY  LGT RAIN  41  41 100 NE21G31   29.93F
PLATTSMOUTH    LGT RAIN  41  38  89 N17G24    29.97F
$$

NEZ044-045-051>053-067-300200-
OMAHA AREA

CITY           SKY/WX    TMP DP  RH WIND       PRES   REMARKS
OMAHA EPPLEY   LGT RAIN  44  36  73 NE25G36   30.00R
BLAIR          CLOUDY    43  37  77 NE20G33   30.00R HAZE
FREMONT        CLOUDY    41  39  91 NE13G21   30.05R
MILLARD        DRIZZLE   44  40  86 N10G21    30.02R
OFFUTT AFB     LGT RAIN  42  39  90 N13G20    29.99R FOG
PLATTSMOUTH    LGT RAIN  41  38  89 N17G24    29.97F
WAHOO          RAIN      41  39  91 N21G28    30.02R
$$




USA.gov is the U.S. government's official web portal to all federal, state and local government web resources and services.